Location: Arpaise
(41.0333°N, 14.7333°E)
Time: 08:10:05
(UTC+00:00)

COSMOS 2428 - Pass Details

Date: 05 July 2020
Orbit: 844 x 859 km, 70.9° (Epoch: 06 August)

Event Time Altitude Azimuth Distance (km) Brightness Sun altitude
Exits shadow 20:15:33 14° 179° (S) 2,194 4.4 -15.0°
Maximum altitude 20:20:14 51° 108° (ESE) 1,059 2.9 -15.6°
Drops below altitude 10° 20:25:42 10° 34° (NE) 2,473 5.3 -16.2°
Sets 20:28:13 0° 29° (NNE) 3,413 6.2 -16.5°
